Weather History for KIMT - October, 2011

Change the Weather History Date:

Monday, October 31, 2011

  Actual Average Record
Temperature  
Mean Temperature 42 °F -  
Max Temperature 44 °F 50 °F 78 °F (1950)
Min Temperature 41 °F 31 °F 16 °F (1984)
Degree Days  
Heating Degree Days 22    
Moisture  
Dew Point 40 °F    
Average Humidity 92    
Maximum Humidity 100    
Minimum Humidity 73    
Precipitation  
Precipitation 0.00 in - - ()
Sea Level Pressure  
Sea Level Pressure 29.94 in    
Wind  
Wind Speed 2 mph (South)    
Max Wind Speed 7 mph    
Max Gust Speed -    
Visibility 5 miles    
Events Fog    
Averages and records for this station are not official NWS values.
T = Trace of Precipitation, MM = Missing Value Source: NWS Daily Summary

Daily Weather History Graph

Daily Weather History Graph

Search for Another Location

Airport or City:

Trip Planner

Search our weather history database for the weather conditions in past years. The results will help you decide how hot, cold, wet, or windy it might be!

Date:

Astronomy

Oct. 31, 2011 Rise Set
Actual Time 7:30 AM CDT 5:40 PM CDT
Civil Twilight 6:59 AM CDT 6:11 PM CDT
Nautical Twilight 6:24 AM CDT 6:46 PM CDT
Astronomical Twilight 5:50 AM CDT 7:21 PM CDT
Moon 12:44 PM CDT (10/31) 10:10 PM CDT (10/31)
Length of Visible Light 11h 11m
Length of Day
10h 09m
Waxing Crescent, 30% of the Moon is Illuminated
Oct 31
Waxing Crescent
Nov 2
First Quarter
Nov 10
Full
Nov 18
Last Quarter
Nov 25
New

Hourly Weather History & Observations

Time (CDT) Temp. Windchill Dew Point Humidity Pressure Visibility Wind Dir Wind Speed Gust Speed Precip Events Conditions
12:54 AM 42.1 °F 40.2 °F 41.0 °F 96% 29.88 in 4.0 mi NE 3.5 mph - N/A   Overcast
1:28 AM 42.8 °F - 41.0 °F 93% 29.86 in 2.0 mi Calm Calm - N/A   Overcast
1:54 AM 42.1 °F - 41.0 °F 96% 29.90 in 1.5 mi Calm Calm - N/A   Overcast
2:06 AM 41.0 °F - 41.0 °F 100% 29.87 in 0.8 mi Calm Calm - N/A   Overcast
2:26 AM 41.0 °F - 41.0 °F 100% 29.87 in 0.2 mi Calm Calm - N/A Fog Fog
2:54 AM 41.0 °F - 41.0 °F 100% 29.89 in 0.2 mi Calm Calm - N/A Fog Fog
3:31 AM 41.0 °F - 41.0 °F 100% 29.86 in 0.5 mi Calm Calm - N/A Fog Fog
3:46 AM 41.0 °F - 41.0 °F 100% 29.86 in 0.2 mi Calm Calm - N/A Fog Fog
3:54 AM 41.0 °F - 41.0 °F 100% 29.90 in 0.2 mi Calm Calm - N/A Fog Fog
5:31 AM 41.0 °F - 41.0 °F 100% 29.89 in 0.8 mi Calm Calm - N/A   Mist
5:39 AM 41.0 °F - 41.0 °F 100% 29.89 in 1.5 mi Calm Calm - N/A   Overcast
5:54 AM 41.0 °F - 41.0 °F 100% 29.93 in 0.8 mi Calm Calm - N/A   Overcast
6:26 AM 41.0 °F - 39.2 °F 93% 29.90 in 1.5 mi Calm Calm - N/A   Overcast
6:41 AM 41.0 °F - 41.0 °F 100% 29.90 in 0.8 mi Calm Calm - N/A   Overcast
6:54 AM 41.0 °F - 41.0 °F 100% 29.94 in 1.0 mi Calm Calm - N/A   Overcast
7:41 AM 41.0 °F - 39.2 °F 93% 29.91 in 0.5 mi Calm Calm - N/A Fog Fog
7:54 AM 41.0 °F - 41.0 °F 100% 29.94 in 0.2 mi Calm Calm - N/A Fog Fog
8:21 AM 41.0 °F - 39.2 °F 93% 29.91 in 1.0 mi Calm Calm - N/A   Overcast
8:29 AM 41.0 °F - 39.2 °F 93% 29.91 in 3.0 mi Calm Calm - N/A   Overcast
8:43 AM 41.0 °F - 41.0 °F 100% 29.92 in 3.0 mi Calm Calm - N/A   Overcast
8:54 AM 41.0 °F - 41.0 °F 100% 29.96 in 3.0 mi Calm Calm - N/A   Overcast
9:18 AM 41.0 °F - 39.2 °F 93% 29.93 in 5.0 mi Calm Calm - N/A   Overcast
9:32 AM 42.8 °F - 39.2 °F 87% 29.93 in 4.0 mi Calm Calm - N/A   Overcast
9:51 AM 42.8 °F - 39.2 °F 87% 29.93 in 5.0 mi Calm Calm - N/A   Overcast
9:54 AM 42.1 °F - 39.9 °F 92% 29.96 in 6.0 mi Calm Calm - N/A   Overcast
10:38 AM 42.8 °F 40.1 °F 39.2 °F 87% 29.93 in 9.0 mi South 4.6 mph - N/A   Overcast
10:54 AM 43.0 °F 41.3 °F 39.9 °F 89% 29.96 in 10.0 mi South 3.5 mph - N/A   Overcast
11:54 AM 44.1 °F - 36.0 °F 73% 29.97 in 10.0 mi Calm Calm - N/A   Overcast
12:54 PM 44.1 °F 41.5 °F 37.9 °F 79% 29.96 in 10.0 mi South 4.6 mph - N/A   Overcast
1:54 PM 44.1 °F 41.5 °F 39.0 °F 82% 29.96 in 10.0 mi SSE 4.6 mph - N/A   Overcast
2:54 PM 43.0 °F 40.3 °F 39.9 °F 89% 29.97 in 10.0 mi SE 4.6 mph - N/A   Overcast
3:46 PM 44.6 °F 43.1 °F 39.2 °F 81% 29.95 in 10.0 mi SE 3.5 mph - N/A   Overcast
3:54 PM 44.1 °F 42.5 °F 39.9 °F 85% 29.98 in 10.0 mi SSE 3.5 mph - N/A   Overcast
5:08 PM 42.8 °F 40.1 °F 39.2 °F 87% 29.97 in 8.0 mi South 4.6 mph - N/A   Overcast
5:12 PM 42.8 °F 40.1 °F 39.2 °F 87% 29.97 in 8.0 mi South 4.6 mph - N/A   Overcast
5:33 PM 42.8 °F 39.3 °F 39.2 °F 87% 29.97 in 6.0 mi South 5.8 mph - N/A   Overcast
5:54 PM 42.1 °F 39.2 °F 39.9 °F 92% 30.01 in 6.0 mi South 4.6 mph - N/A   Overcast
6:19 PM 42.8 °F 41.1 °F 39.2 °F 87% 29.98 in 5.0 mi South 3.5 mph - N/A   Overcast
6:54 PM 42.1 °F 40.2 °F 39.9 °F 92% 30.02 in 6.0 mi South 3.5 mph - N/A   Overcast
7:54 PM 42.1 °F 38.4 °F 39.9 °F 92% 30.03 in 8.0 mi South 5.8 mph - N/A   Overcast
8:54 PM 42.1 °F 37.7 °F 39.0 °F 89% 30.03 in 10.0 mi SSW 6.9 mph - N/A   Overcast
9:54 PM 42.1 °F 38.4 °F 39.0 °F 89% 30.04 in 10.0 mi SSW 5.8 mph - N/A   Overcast
10:54 PM 42.1 °F 37.7 °F 37.9 °F 85% 30.04 in 10.0 mi SSW 6.9 mph - N/A   Overcast
11:54 PM 41.0 °F 38.0 °F 36.0 °F 82% 30.04 in 10.0 mi South 4.6 mph - N/A   Overcast